Regional Weather Roundup
Issued by NWS

Home | Current Version | Previous Version | Text Only | Print | Product List | Glossary On
Versions: 1 2 3 4 5 6 7 8 9 10 11 12 13 14 15 16 17 18 19 20 21 22 23 24 25 26 27 28 29 30 31 32 33 34 35 36 37 38 39 40 41 42 43 44 45 46 47 48 49 50
000
ASUS44 KOUN 231710
RWROK

WEATHER ROUNDUP FOR OKLAHOMA
NATIONAL WEATHER SERVICE NORMAN OK
1200 PM CDT WED APR 23 2014

NOTE: "FAIR" INDICATES FEW OR NO CLOUDS BELOW 12,000 FEET WITH NO
      SIGNIFICANT WEATHER AND/OR OBSTRUCTIONS TO VISIBILITY.

OKZ001>007-009>012-014-015-017-231800-
NORTHWEST OKLAHOMA AND THE PANHANDLE

CITY           SKY/WX    TMP DP  RH WIND       PRES   REMARKS
GAGE           PTSUNNY   77  52  41 S29G40    29.77F
ENID/VANCE AFB PTSUNNY   81  54  39 S23G35    29.80F
ENID/WOODRING  PTSUNNY   81  52  36 S25G37    29.80F
$$

OKZ016-021>023-033>039-044-045-231800-
SOUTHWEST OKLAHOMA

CITY           SKY/WX    TMP DP  RH WIND       PRES   REMARKS
LAWTON/REGL    SUNNY     79  59  50 S16G26    29.85F
LAWTON/FT SILL SUNNY     79  60  53 S17G25    29.84F
FREDERICK      SUNNY     81  59  47 S20G30    29.80F
CLINTON        MOSUNNY   77  57  50 S25G33    29.82F
HOBART         SUNNY     79  57  46 SW24G35   29.83F
ALTUS AFB      SUNNY     80  61  51 S21G28    29.81F
$$

OKZ018>020-024>031-231800-
CENTRAL OKLAHOMA

CITY           SKY/WX    TMP DP  RH WIND       PRES   REMARKS
OKLAHOMA CITY  MOSUNNY   80  56  43 S25G31    29.85F
OKC/WILEY POST SUNNY     80  52  37 S24G33    29.84F
OKC/TINKER AFB SUNNY     78  58  50 S21G32    29.86F
STILLWATER     SUNNY     82  51  34 S21G29    29.84F
GUTHRIE        SUNNY     81  51  35 S18G28    29.84F
$$

OKZ008-013-054>072-231800-
NORTHEAST OKLAHOMA

CITY           SKY/WX    TMP DP  RH WIND       PRES   REMARKS
TULSA          MOSUNNY   75  51  43 S18       29.88F
TULSA/JONES    SUNNY     78  50  37 S14G22    29.89F
PONCA CITY     SUNNY     80  49  33 S20G25    29.83F
BARTLESVILLE   SUNNY     77  47  34 S14G22    29.89F
MUSKOGEE       SUNNY     75  50  41 SE14G22   29.93F
$$

OKZ032-040>043-046>053-073>077-231800-
SOUTH CENTRAL/SOUTHEAST OKLAHOMA

CITY           SKY/WX    TMP DP  RH WIND       PRES   REMARKS
ARDMORE/DWNTWN   N/A     77  59  53 S15G22    29.89F
MCALESTER      SUNNY     79  55  43 S8G20     29.92F
$$




USA.gov is the U.S. government's official web portal to all federal, state and local government web resources and services.